{"data":{"norad_id":68752,"epoch":"2026-09-20T03:30:56.187360Z","epoch_age_seconds":70436,"freshness":"FRESH","line1":"1 68752U 26082AA  26263.14648365  .00009332  00000+0  29098-3 0  9999","line2":"2 68752  97.2848 125.3385 0002134  88.1316 272.0171 15.33449807 24259","mean_motion":15.33449807,"eccentricity":0.0002134,"inclination_deg":97.2848,"raan_deg":125.3385,"arg_perigee_deg":88.1316,"mean_anomaly_deg":272.0171,"bstar":0.00029098,"rev_number":2425,"period_min":93.905910283244,"perigee_km":464.06843396836,"apogee_km":466.98931056265,"semimajor_km":6843.6658722655,"source":"CELESTRAK","updated_at":"2026-09-20T09:00:43.996210Z"}}